Time,TemperatureF,DewpointF,PressureIn,WindDirection,WindDirectionDegrees,WindSpeedMPH,WindSpeedGustMPH,Humidity,HourlyPrecipIn,Conditions,Clouds,dailyrainin,SoftwareType,DateUTC
2013-03-01 00:00:00,31.7,29.9,29.54,NNE,12,0.0,2.0,93,0.00,RA,,0.00,WeatherDisplay:10.37,2013-03-01 05:00:00,
2013-03-01 00:03:00,31.7,28.6,29.54,NNE,12,0.0,0.0,88,0.00,OVC,,0.00,WeatherDisplay:10.37,2013-03-01 05:03:00,
2013-03-01 00:06:00,31.7,28.6,29.54,NNE,12,1.1,0.0,88,0.00,OVC,,0.00,WeatherDisplay:10.37,2013-03-01 05:06:00,
2013-03-01 00:11:00,31.6,28.5,29.54,NNE,12,0.0,0.0,88,0.00,OVC,,0.00,WeatherDisplay:10.37,2013-03-01 05:11:00,
2013-03-01 00:16:00,31.6,28.5,29.54,NNE,12,1.1,0.0,88,0.00,OVC,,0.00,WeatherDisplay:10.37,2013-03-01 05:16:00,
2013-03-01 00:21:00,31.6,27.9,29.54,NNE,12,0.0,0.0,86,0.00,OVC,,0.00,WeatherDisplay:10.37,2013-03-01 05:21:00,
2013-03-01 00:26:00,31.5,27.8,29.54,NNE,12,0.0,0.0,86,0.00,OVC,,0.00,WeatherDisplay:10.37,2013-03-01 05:26:00,
2013-03-01 00:31:00,31.5,27.8,29.54,NNE,12,0.0,0.0,86,0.00,OVC,,0.00,WeatherDisplay:10.37,2013-03-01 05:31:00,
2013-03-01 00:36:00,31.4,27.7,29.54,NNE,12,0.0,0.1,86,0.00,OVC,,0.00,WeatherDisplay:10.37,2013-03-01 05:36:00,
2013-03-01 00:41:00,31.4,27.7,29.54,NNE,12,0.0,0.0,86,0.00,OVC,,0.00,WeatherDisplay:10.37,2013-03-01 05:41:00,
2013-03-01 00:46:00,31.3,27.6,29.54,NNE,12,0.0,0.0,86,0.00,OVC,,0.00,WeatherDisplay:10.37,2013-03-01 05:46:00,
2013-03-01 00:51:00,31.3,27.6,29.54,NNE,12,0.0,0.0,86,0.00,OVC,,0.00,WeatherDisplay:10.37,2013-03-01 05:51:00,
2013-03-01 00:56:00,31.2,27.5,29.54,NNE,12,0.0,0.0,86,0.00,OVC,,0.00,WeatherDisplay:10.37,2013-03-01 05:56:00,
2013-03-01 01:01:00,31.1,27.4,29.54,NNE,12,0.0,0.0,86,0.00,OVC,,0.00,WeatherDisplay:10.37,2013-03-01 06:01:00,
2013-03-01 01:06:00,31.2,27.5,29.54,NNE,12,0.0,0.0,86,0.00,OVC,,0.00,WeatherDisplay:10.37,2013-03-01 06:06:00,
2013-03-01 01:11:00,31.0,28.9,29.54,NNE,12,0.0,0.0,92,0.00,OVC,,0.00,WeatherDisplay:10.37,2013-03-01 06:11:00,
2013-03-01 01:16:00,31.0,28.9,29.54,NNE,12,0.0,0.0,92,0.00,OVC,,0.00,WeatherDisplay:10.37,2013-03-01 06:16:00,
2013-03-01 01:21:00,31.0,28.9,29.54,NNE,12,0.0,0.0,92,0.00,OVC,,0.00,WeatherDisplay:10.37,2013-03-01 06:21:00,
2013-03-01 01:26:00,31.0,28.9,29.54,NNE,12,0.0,0.0,92,0.00,OVC,,0.00,WeatherDisplay:10.37,2013-03-01 06:26:00,
2013-03-01 01:31:00,30.9,28.9,29.54,NNE,12,0.0,0.0,92,0.00,OVC,,0.00,WeatherDisplay:10.37,2013-03-01 06:31:00,
2013-03-01 01:36:00,31.0,28.9,29.54,NNE,12,0.0,0.0,92,0.00,OVC,,0.00,WeatherDisplay:10.37,2013-03-01 06:36:00,
2013-03-01 01:41:00,30.9,28.9,29.54,NNE,12,0.0,0.0,92,0.00,OVC,,0.00,WeatherDisplay:10.37,2013-03-01 06:41:00,
2013-03-01 01:46:00,30.7,28.7,29.54,NNE,12,0.0,0.0,92,0.00,OVC,,0.00,WeatherDisplay:10.37,2013-03-01 06:46:00,
2013-03-01 01:51:00,30.7,28.9,29.53,NNE,12,0.0,0.0,93,0.00,OVC,,0.00,WeatherDisplay:10.37,2013-03-01 06:51:00,
2013-03-01 01:56:00,30.5,28.7,29.53,NNE,12,0.0,0.0,93,0.00,OVC,,0.00,WeatherDisplay:10.37,2013-03-01 06:56:00,
2013-03-01 02:01:00,30.4,28.6,29.53,NNE,12,0.0,0.0,93,0.00,OVC,,0.00,WeatherDisplay:10.37,2013-03-01 07:01:00,
2013-03-01 02:06:00,30.3,28.5,29.53,NNE,12,0.0,0.0,93,0.00,OVC,,0.00,WeatherDisplay:10.37,2013-03-01 07:06:00,
2013-03-01 02:11:00,30.1,28.3,29.53,NNE,12,0.0,0.0,93,0.00,SCT,,0.00,WeatherDisplay:10.37,2013-03-01 07:11:00,
2013-03-01 02:16:00,30.1,28.3,29.53,NNE,12,0.0,0.0,93,0.00,SCT,,0.00,WeatherDisplay:10.37,2013-03-01 07:16:00,
2013-03-01 02:21:00,30.0,28.2,29.53,NNE,12,0.0,0.0,93,0.00,SCT,,0.00,WeatherDisplay:10.37,2013-03-01 07:21:00,
2013-03-01 02:26:00,30.0,28.2,29.53,NNE,12,0.0,0.0,93,0.00,SCT,,0.00,WeatherDisplay:10.37,2013-03-01 07:26:00,
2013-03-01 02:31:00,30.0,28.2,29.53,NNE,12,0.0,0.0,93,0.00,SCT,,0.00,WeatherDisplay:10.37,2013-03-01 07:31:00,
2013-03-01 02:36:00,29.7,27.9,29.53,NNE,12,0.0,0.0,93,0.00,SCT,,0.00,WeatherDisplay:10.37,2013-03-01 07:36:00,
2013-03-01 02:41:00,29.9,28.1,29.53,NNE,12,0.0,0.0,93,0.00,SCT,,0.00,WeatherDisplay:10.37,2013-03-01 07:41:00,
2013-03-01 02:46:00,30.3,28.5,29.53,NNE,12,0.0,0.0,93,0.00,SCT,,0.00,WeatherDisplay:10.37,2013-03-01 07:46:00,
2013-03-01 02:51:00,30.1,28.3,29.53,NNE,12,2.3,0.0,93,0.00,SCT,,0.00,WeatherDisplay:10.37,2013-03-01 07:51:00,
2013-03-01 02:56:00,30.2,28.4,29.53,NNE,12,0.0,0.0,93,0.00,SCT,,0.00,WeatherDisplay:10.37,2013-03-01 07:56:00,
2013-03-01 03:01:00,30.0,28.2,29.53,NNE,12,0.0,0.0,93,0.00,SCT,,0.00,WeatherDisplay:10.37,2013-03-01 08:01:00,
2013-03-01 03:06:00,29.9,28.1,29.53,NNE,12,0.0,0.0,93,0.00,SCT,,0.00,WeatherDisplay:10.37,2013-03-01 08:06:00,
2013-03-01 03:11:00,29.9,28.6,29.53,NNE,12,1.1,1.1,95,0.00,SCT,,0.00,WeatherDisplay:10.37,2013-03-01 08:11:00,
2013-03-01 03:16:00,30.2,28.9,29.53,NNE,12,1.1,1.1,95,0.00,SCT,,0.00,WeatherDisplay:10.37,2013-03-01 08:16:00,
2013-03-01 03:21:00,30.3,29.0,29.53,NNE,12,2.3,2.3,95,0.00,SCT,,0.00,WeatherDisplay:10.37,2013-03-01 08:21:00,
2013-03-01 03:26:00,30.6,29.3,29.53,NNE,12,2.3,2.3,95,0.00,SCT,,0.00,WeatherDisplay:10.37,2013-03-01 08:26:00,
2013-03-01 03:31:00,30.7,30.7,29.53,NNE,12,1.1,1.1,100,0.00,BKN,,0.00,WeatherDisplay:10.37,2013-03-01 08:31:00,
2013-03-01 03:36:00,30.9,30.9,29.53,NNE,12,1.1,1.1,100,0.00,BKN,,0.00,WeatherDisplay:10.37,2013-03-01 08:36:00,
2013-03-01 03:41:00,31.1,31.1,29.53,NNE,12,2.3,2.3,100,0.00,BKN,,0.00,WeatherDisplay:10.37,2013-03-01 08:41:00,
2013-03-01 03:46:00,31.3,31.3,29.53,NNE,12,1.1,1.1,100,0.00,BKN,,0.00,WeatherDisplay:10.37,2013-03-01 08:46:00,
2013-03-01 03:51:00,31.4,31.4,29.53,NNE,12,1.1,1.1,100,0.00,BKN,,0.00,WeatherDisplay:10.37,2013-03-01 08:51:00,
2013-03-01 03:56:00,31.1,31.1,29.53,NNE,12,0.0,0.1,100,0.00,BKN,,0.00,WeatherDisplay:10.37,2013-03-01 08:56:00,
2013-03-01 04:01:00,31.1,31.1,29.53,NNE,12,0.0,0.0,100,0.00,BKN,,0.00,WeatherDisplay:10.37,2013-03-01 09:01:00,
2013-03-01 04:06:00,29.9,29.9,29.53,NNE,12,0.0,0.0,100,0.00,BKN,,0.00,WeatherDisplay:10.37,2013-03-01 09:06:00,
2013-03-01 04:11:00,29.4,29.4,29.54,NNE,12,0.0,0.0,100,0.00,BKN,,0.00,WeatherDisplay:10.37,2013-03-01 09:11:00,
2013-03-01 04:16:00,29.1,29.1,29.54,NNE,12,0.0,0.0,100,0.00,BKN,,0.00,WeatherDisplay:10.37,2013-03-01 09:16:00,
2013-03-01 04:21:00,28.7,28.7,29.54,NNE,12,0.0,0.0,100,0.00,BKN,,0.00,WeatherDisplay:10.37,2013-03-01 09:21:00,
2013-03-01 04:26:00,28.7,28.7,29.54,NNE,12,0.0,0.0,100,0.00,BKN,,0.00,WeatherDisplay:10.37,2013-03-01 09:26:00,
2013-03-01 04:31:00,28.7,28.7,29.55,NNE,12,1.1,1.1,100,0.00,BKN,,0.00,WeatherDisplay:10.37,2013-03-01 09:31:00,
2013-03-01 04:36:00,28.9,28.9,29.55,NNE,12,1.1,1.1,100,0.00,BKN,,0.00,WeatherDisplay:10.37,2013-03-01 09:36:00,
2013-03-01 04:41:00,28.9,28.9,29.55,NNE,12,1.1,1.1,100,0.00,BKN,,0.00,WeatherDisplay:10.37,2013-03-01 09:41:00,
2013-03-01 04:46:00,28.5,28.5,29.55,NNE,12,0.0,0.0,100,0.00,BKN,,0.00,WeatherDisplay:10.37,2013-03-01 09:46:00,
2013-03-01 04:51:00,28.7,28.7,29.55,NNE,12,1.1,1.1,100,0.00,BKN,,0.00,WeatherDisplay:10.37,2013-03-01 09:51:00,
2013-03-01 04:56:00,29.8,29.8,29.55,NNE,12,0.0,0.0,100,0.00,BKN,,0.00,WeatherDisplay:10.37,2013-03-01 09:56:00,
2013-03-01 05:01:00,29.0,29.0,29.55,NNE,12,0.0,0.0,100,0.00,BKN,,0.00,WeatherDisplay:10.37,2013-03-01 10:01:00,
2013-03-01 05:06:00,27.6,27.6,29.55,NNE,12,0.0,0.0,100,0.00,BKN,,0.00,WeatherDisplay:10.37,2013-03-01 10:06:00,
2013-03-01 05:11:00,27.4,27.4,29.55,NNE,12,0.0,0.0,100,0.00,BKN,,0.00,WeatherDisplay:10.37,2013-03-01 10:11:00,
2013-03-01 05:16:00,27.4,27.4,29.55,NNE,12,0.0,0.0,100,0.00,BKN,,0.00,WeatherDisplay:10.37,2013-03-01 10:16:00,
2013-03-01 05:21:00,27.4,25.4,29.55,NNE,12,0.0,0.0,92,0.00,,,0.00,WeatherDisplay:10.37,2013-03-01 10:21:00,
2013-03-01 05:26:00,27.8,25.8,29.55,NNE,12,0.0,0.0,92,0.00,CLR,,0.00,WeatherDisplay:10.37,2013-03-01 10:26:00,
2013-03-01 05:31:00,28.3,26.3,29.55,NNE,12,0.0,0.0,92,0.00,CLR,,0.00,WeatherDisplay:10.37,2013-03-01 10:31:00,
2013-03-01 05:36:00,28.3,26.3,29.55,NNE,12,0.0,0.0,92,0.00,CLR,,0.00,WeatherDisplay:10.37,2013-03-01 10:36:00,
2013-03-01 05:41:00,27.5,27.5,29.55,NNE,12,0.0,0.1,100,0.00,FEW,,0.00,WeatherDisplay:10.37,2013-03-01 10:41:00,
2013-03-01 05:46:00,27.3,27.3,29.55,NNE,12,0.0,0.0,100,0.00,FEW,,0.00,WeatherDisplay:10.37,2013-03-01 10:46:00,
2013-03-01 05:51:00,27.2,27.2,29.55,NNE,12,0.0,0.0,100,0.00,FEW,,0.00,WeatherDisplay:10.37,2013-03-01 10:51:00,
2013-03-01 05:56:00,27.4,27.4,29.55,NNE,12,0.0,0.0,100,0.00,FEW,,0.00,WeatherDisplay:10.37,2013-03-01 10:56:00,
2013-03-01 06:01:00,27.2,26.0,29.56,NNE,12,1.1,1.1,95,0.00,CLR,,0.00,WeatherDisplay:10.37,2013-03-01 11:01:00,
2013-03-01 06:06:00,28.4,27.2,29.56,NNE,12,2.3,2.3,95,0.00,CLR,,0.00,WeatherDisplay:10.37,2013-03-01 11:06:00,
2013-03-01 06:11:00,30.1,28.8,29.56,NNE,12,1.1,1.1,95,0.00,CLR,,0.00,WeatherDisplay:10.37,2013-03-01 11:11:00,
2013-03-01 06:16:00,28.7,27.4,29.56,NNE,12,1.1,1.1,95,0.00,CLR,,0.00,WeatherDisplay:10.37,2013-03-01 11:16:00,
2013-03-01 06:21:00,28.2,28.2,29.56,NNE,12,2.3,2.3,100,0.00,CLR,,0.00,WeatherDisplay:10.37,2013-03-01 11:21:00,
2013-03-01 06:26:00,27.7,27.7,29.56,NNE,12,0.0,0.0,100,0.00,CLR,,0.00,WeatherDisplay:10.37,2013-03-01 11:26:00,
2013-03-01 06:31:00,26.6,26.6,29.56,NNE,12,1.1,0.0,100,0.00,CLR,,0.00,WeatherDisplay:10.37,2013-03-01 11:31:00,
2013-03-01 06:36:00,27.1,27.1,29.56,NNE,12,0.0,0.0,100,0.00,CLR,,0.00,WeatherDisplay:10.37,2013-03-01 11:36:00,
2013-03-01 06:41:00,27.7,27.7,29.56,NNE,12,0.0,0.0,100,0.00,CLR,,0.00,WeatherDisplay:10.37,2013-03-01 11:41:00,
2013-03-01 06:46:00,28.3,28.3,29.56,NNE,12,0.0,0.0,100,0.00,CLR,,0.00,WeatherDisplay:10.37,2013-03-01 11:46:00,
2013-03-01 06:51:00,29.0,29.0,29.56,NNE,12,0.0,0.0,100,0.00,CLR,,0.00,WeatherDisplay:10.37,2013-03-01 11:51:00,
2013-03-01 06:56:00,28.0,28.0,29.56,NNE,12,0.0,0.0,100,0.00,CLR,,0.00,WeatherDisplay:10.37,2013-03-01 11:56:00,
2013-03-01 07:01:00,27.4,27.4,29.57,NNE,12,0.0,0.0,100,0.00,CLR,,0.00,WeatherDisplay:10.37,2013-03-01 12:01:00,
2013-03-01 07:06:00,27.4,27.4,29.57,NNE,12,0.0,0.0,100,0.00,CLR,,0.00,WeatherDisplay:10.37,2013-03-01 12:06:00,
2013-03-01 07:11:00,27.4,27.4,29.57,NNE,12,0.0,0.0,100,0.00,CLR,,0.00,WeatherDisplay:10.37,2013-03-01 12:11:00,
2013-03-01 07:16:00,27.4,27.4,29.57,NNE,12,0.0,0.0,100,0.00,CLR,,0.00,WeatherDisplay:10.37,2013-03-01 12:16:00,
2013-03-01 07:21:00,27.4,27.4,29.57,NNE,12,0.0,0.0,100,0.00,CLR,,0.00,WeatherDisplay:10.37,2013-03-01 12:21:00,
2013-03-01 07:26:00,27.6,27.6,29.57,NNE,12,0.0,0.0,100,0.00,CLR,,0.00,WeatherDisplay:10.37,2013-03-01 12:26:00,
2013-03-01 07:31:00,27.7,27.7,29.57,NNE,12,0.0,0.0,100,0.00,CLR,,0.00,WeatherDisplay:10.37,2013-03-01 12:31:00,
2013-03-01 07:36:00,28.1,28.1,29.57,NNE,12,0.0,0.0,100,0.00,CLR,,0.00,WeatherDisplay:10.37,2013-03-01 12:36:00,
2013-03-01 07:41:00,27.8,27.8,29.57,NNE,12,0.0,0.0,100,0.00,CLR,,0.00,WeatherDisplay:10.37,2013-03-01 12:41:00,
2013-03-01 07:46:00,27.9,27.9,29.57,NNE,12,0.0,0.0,100,0.00,CLR,,0.00,WeatherDisplay:10.37,2013-03-01 12:46:00,
2013-03-01 07:51:00,27.5,27.5,29.57,NNE,12,0.0,0.0,100,0.00,CLR,,0.00,WeatherDisplay:10.37,2013-03-01 12:51:00,
2013-03-01 07:56:00,28.2,28.2,29.57,NNE,12,0.0,0.0,100,0.00,CLR,,0.00,WeatherDisplay:10.37,2013-03-01 12:56:00,
2013-03-01 08:01:00,28.8,28.8,29.57,NNE,12,0.0,0.0,100,0.00,CLR,,0.00,WeatherDisplay:10.37,2013-03-01 13:01:00,
2013-03-01 08:06:00,29.1,29.1,29.57,NNE,12,0.0,0.0,100,0.00,CLR,,0.00,WeatherDisplay:10.37,2013-03-01 13:06:00,
2013-03-01 08:11:00,29.9,29.9,29.59,NNE,12,0.0,0.0,100,0.00,SCT,,0.00,WeatherDisplay:10.37,2013-03-01 13:11:00,
2013-03-01 08:16:00,30.0,30.0,29.59,NNE,12,0.0,0.0,100,0.00,SCT,,0.00,WeatherDisplay:10.37,2013-03-01 13:16:00,
2013-03-01 08:21:00,32.0,32.0,29.59,NNE,12,2.3,2.3,100,0.00,SCT,,0.00,WeatherDisplay:10.37,2013-03-01 13:21:00,
2013-03-01 08:26:00,32.6,32.6,29.59,NNE,12,0.0,0.0,100,0.00,SCT,,0.00,WeatherDisplay:10.37,2013-03-01 13:26:00,
2013-03-01 08:31:00,32.2,32.2,29.59,NNE,12,0.0,0.0,100,0.00,SCT,,0.00,WeatherDisplay:10.37,2013-03-01 13:31:00,
2013-03-01 08:36:00,32.5,32.5,29.59,NNE,12,2.3,2.3,100,0.00,SCT,,0.00,WeatherDisplay:10.37,2013-03-01 13:36:00,
2013-03-01 08:41:00,33.2,33.2,29.59,North,10,2.0,2.0,100,0.00,SCT,,0.00,WeatherDisplay:10.37,2013-03-01 13:41:00,
2013-03-01 08:46:00,33.5,33.5,29.59,North,10,2.3,2.3,100,0.00,SCT,,0.00,WeatherDisplay:10.37,2013-03-01 13:46:00,
2013-03-01 08:51:00,33.7,33.7,29.59,North,10,2.3,2.3,100,0.00,SCT,,0.00,WeatherDisplay:10.37,2013-03-01 13:51:00,
2013-03-01 08:56:00,33.6,33.6,29.59,NNW,340,3.5,3.5,100,0.00,SCT,,0.00,WeatherDisplay:10.37,2013-03-01 13:56:00,
2013-03-01 09:01:00,33.6,33.6,29.59,NNW,346,3.5,3.5,100,0.00,SCT,,0.00,WeatherDisplay:10.37,2013-03-01 14:01:00,
2013-03-01 09:06:00,33.9,33.9,29.59,NW,314,2.0,2.0,100,0.00,SCT,,0.00,WeatherDisplay:10.37,2013-03-01 14:06:00,
2013-03-01 09:11:00,33.9,30.2,29.61,NW,314,3.5,3.5,86,0.00,OVC,,0.00,WeatherDisplay:10.37,2013-03-01 14:11:00,
2013-03-01 09:16:00,33.9,30.2,29.61,North,349,8.1,8.1,86,0.00,OVC,,0.00,WeatherDisplay:10.37,2013-03-01 14:16:00,
2013-03-01 09:21:00,34.0,30.3,29.61,NNW,329,3.5,3.5,86,0.00,OVC,,0.00,WeatherDisplay:10.37,2013-03-01 14:21:00,
2013-03-01 09:26:00,34.4,30.6,29.61,NNW,332,5.0,5.0,86,0.00,OVC,,0.00,WeatherDisplay:10.37,2013-03-01 14:26:00,
2013-03-01 09:31:00,34.5,30.7,29.61,NW,312,5.8,5.8,86,0.00,OVC,,0.00,WeatherDisplay:10.37,2013-03-01 14:31:00,
2013-03-01 09:36:00,34.6,30.8,29.61,NNW,344,3.5,3.5,86,0.00,OVC,,0.00,WeatherDisplay:10.37,2013-03-01 14:36:00,
2013-03-01 09:41:00,34.7,30.9,29.61,NNW,346,8.1,8.1,86,0.00,OVC,,0.00,WeatherDisplay:10.37,2013-03-01 14:41:00,
2013-03-01 09:46:00,34.9,31.1,29.61,NNW,341,4.0,4.0,86,0.00,OVC,,0.00,WeatherDisplay:10.37,2013-03-01 14:46:00,
2013-03-01 09:51:00,34.8,27.4,29.61,NW,306,3.5,3.5,74,0.00,OVC,,0.00,WeatherDisplay:10.37,2013-03-01 14:51:00,
2013-03-01 09:56:00,35.0,27.5,29.61,NW,325,3.5,3.5,74,0.00,OVC,,0.00,WeatherDisplay:10.37,2013-03-01 14:56:00,
2013-03-01 10:01:00,35.0,27.5,29.61,NW,309,4.6,4.6,74,0.00,OVC,,0.00,WeatherDisplay:10.37,2013-03-01 15:01:00,
2013-03-01 10:06:00,34.8,27.4,29.61,NW,306,4.6,4.6,74,0.00,OVC,,0.00,WeatherDisplay:10.37,2013-03-01 15:06:00,
2013-03-01 10:11:00,34.8,25.7,29.61,NW,325,3.5,3.5,69,0.00,OVC,,0.00,WeatherDisplay:10.37,2013-03-01 15:11:00,
2013-03-01 10:16:00,34.9,25.8,29.61,NW,324,5.8,5.8,69,0.00,OVC,,0.00,WeatherDisplay:10.37,2013-03-01 15:16:00,
2013-03-01 10:21:00,35.5,26.3,29.61,NW,322,4.0,4.0,69,0.00,OVC,,0.00,WeatherDisplay:10.37,2013-03-01 15:21:00,
2013-03-01 10:26:00,35.5,26.3,29.61,NNW,344,3.5,3.5,69,0.00,OVC,,0.00,WeatherDisplay:10.37,2013-03-01 15:26:00,
2013-03-01 10:31:00,35.7,26.5,29.61,NNW,344,1.1,1.1,69,0.00,OVC,,0.00,WeatherDisplay:10.37,2013-03-01 15:31:00,
2013-03-01 10:36:00,34.7,25.6,29.61,NW,311,4.0,4.0,69,0.00,OVC,,0.00,WeatherDisplay:10.37,2013-03-01 15:36:00,
2013-03-01 10:41:00,34.7,25.6,29.61,NW,311,4.6,4.6,69,0.00,OVC,,0.00,WeatherDisplay:10.37,2013-03-01 15:41:00,
2013-03-01 10:46:00,34.5,25.4,29.61,WNW,296,3.5,3.5,69,0.00,OVC,,0.00,WeatherDisplay:10.37,2013-03-01 15:46:00,
2013-03-01 10:51:00,34.5,25.4,29.61,WNW,295,3.5,3.5,69,0.00,OVC,,0.00,WeatherDisplay:10.37,2013-03-01 15:51:00,
2013-03-01 10:56:00,34.2,25.1,29.61,WNW,291,4.6,4.6,69,0.00,OVC,,0.00,WeatherDisplay:10.37,2013-03-01 15:56:00,
2013-03-01 11:01:00,34.4,25.3,29.61,WNW,282,3.5,3.5,69,0.00,OVC,,0.00,WeatherDisplay:10.37,2013-03-01 16:01:00,
2013-03-01 11:06:00,34.6,25.5,29.61,WNW,282,4.6,4.6,69,0.00,OVC,,0.00,WeatherDisplay:10.37,2013-03-01 16:06:00,
2013-03-01 11:11:00,34.5,24.3,29.61,WNW,282,3.5,3.5,66,0.00,OVC,,0.00,WeatherDisplay:10.37,2013-03-01 16:11:00,
2013-03-01 11:16:00,34.5,24.3,29.61,WNW,295,4.6,4.6,66,0.00,OVC,,0.00,WeatherDisplay:10.37,2013-03-01 16:16:00,
2013-03-01 11:21:00,34.7,24.5,29.61,WNW,295,3.5,3.5,66,0.00,OVC,,0.00,WeatherDisplay:10.37,2013-03-01 16:21:00,
2013-03-01 11:26:00,34.4,24.2,29.61,NW,307,4.6,4.6,66,0.00,OVC,,0.00,WeatherDisplay:10.37,2013-03-01 16:26:00,
2013-03-01 11:31:00,34.7,24.5,29.61,NW,306,2.3,2.3,66,0.00,OVC,,0.00,WeatherDisplay:10.37,2013-03-01 16:31:00,
2013-03-01 11:36:00,34.9,24.7,29.61,NW,306,3.5,3.5,66,0.00,OVC,,0.00,WeatherDisplay:10.37,2013-03-01 16:36:00,
2013-03-01 11:41:00,34.7,24.5,29.61,WNW,301,5.8,5.8,66,0.00,OVC,,0.00,WeatherDisplay:10.37,2013-03-01 16:41:00,
2013-03-01 11:46:00,34.5,24.3,29.61,NW,305,5.8,5.8,66,0.00,OVC,,0.00,WeatherDisplay:10.37,2013-03-01 16:46:00,
2013-03-01 11:51:00,34.9,24.7,29.61,NW,307,3.5,3.5,66,0.00,OVC,,0.00,WeatherDisplay:10.37,2013-03-01 16:51:00,
2013-03-01 11:56:00,34.9,24.7,29.61,WNW,289,4.0,4.0,66,0.00,OVC,,0.00,WeatherDisplay:10.37,2013-03-01 16:56:00,
2013-03-01 12:01:00,35.2,25.0,29.61,NNW,333,3.5,3.5,66,0.00,OVC,,0.00,WeatherDisplay:10.37,2013-03-01 17:01:00,
2013-03-01 12:06:00,34.9,24.7,29.61,NNW,347,3.5,3.5,66,0.00,OVC,,0.00,WeatherDisplay:10.37,2013-03-01 17:06:00,
2013-03-01 12:11:00,34.8,25.7,29.63,NW,312,4.0,4.0,69,0.00,OVC,,0.00,WeatherDisplay:10.37,2013-03-01 17:11:00,
2013-03-01 12:16:00,34.7,25.6,29.63,NNW,333,4.0,4.0,69,0.00,OVC,,0.00,WeatherDisplay:10.37,2013-03-01 17:16:00,
2013-03-01 12:21:00,34.6,25.5,29.63,NW,321,4.6,4.6,69,0.00,OVC,,0.00,WeatherDisplay:10.37,2013-03-01 17:21:00,
2013-03-01 12:26:00,34.7,25.6,29.63,NW,310,3.5,3.5,69,0.00,OVC,,0.00,WeatherDisplay:10.37,2013-03-01 17:26:00,
2013-03-01 12:31:00,34.9,25.8,29.63,NW,323,3.5,3.5,69,0.00,OVC,,0.00,WeatherDisplay:10.37,2013-03-01 17:31:00,
2013-03-01 12:36:00,34.6,25.5,29.63,NNW,344,5.8,5.8,69,0.00,OVC,,0.00,WeatherDisplay:10.37,2013-03-01 17:36:00,
2013-03-01 12:41:00,34.6,25.5,29.63,NW,305,3.5,3.5,69,0.00,OVC,,0.00,WeatherDisplay:10.37,2013-03-01 17:41:00,
2013-03-01 12:46:00,34.8,25.7,29.63,NW,304,2.3,2.3,69,0.00,OVC,,0.00,WeatherDisplay:10.37,2013-03-01 17:46:00,
2013-03-01 12:51:00,35.1,25.9,29.63,NW,304,1.1,0.0,69,0.00,OVC,,0.00,WeatherDisplay:10.37,2013-03-01 17:51:00,
2013-03-01 12:56:00,35.1,25.9,29.63,NW,304,3.5,3.5,69,0.00,OVC,,0.00,WeatherDisplay:10.37,2013-03-01 17:56:00,
2013-03-01 13:01:00,34.6,25.5,29.63,North,0,9.2,9.2,69,0.00,OVC,,0.00,WeatherDisplay:10.37,2013-03-01 18:01:00,
2013-03-01 13:06:00,34.5,25.4,29.63,NNW,329,3.5,3.5,69,0.00,OVC,,0.00,WeatherDisplay:10.37,2013-03-01 18:06:00,
2013-03-01 13:11:00,34.4,25.3,29.62,NW,305,8.1,8.1,69,0.00,OVC,,0.00,WeatherDisplay:10.37,2013-03-01 18:11:00,
2013-03-01 13:16:00,35.0,25.9,29.62,NNW,340,3.5,3.5,69,0.00,OVC,,0.00,WeatherDisplay:10.37,2013-03-01 18:16:00,
2013-03-01 13:21:00,35.5,26.3,29.62,NNW,340,4.0,4.0,69,0.00,OVC,,0.00,WeatherDisplay:10.37,2013-03-01 18:21:00,
2013-03-01 13:26:00,34.7,25.6,29.62,North,357,4.6,4.6,69,0.00,OVC,,0.00,WeatherDisplay:10.37,2013-03-01 18:26:00,
2013-03-01 13:31:00,34.7,25.6,29.62,North,357,2.3,2.3,69,0.00,OVC,,0.00,WeatherDisplay:10.37,2013-03-01 18:31:00,
2013-03-01 13:36:00,34.5,25.4,29.62,North,350,3.5,3.5,69,0.00,OVC,,0.00,WeatherDisplay:10.37,2013-03-01 18:36:00,
2013-03-01 13:41:00,34.9,25.8,29.62,North,350,2.3,2.3,69,0.00,OVC,,0.00,WeatherDisplay:10.37,2013-03-01 18:41:00,
2013-03-01 13:46:00,35.0,25.9,29.62,NNW,342,3.5,3.5,69,0.00,OVC,,0.00,WeatherDisplay:10.37,2013-03-01 18:46:00,
2013-03-01 13:51:00,34.7,25.6,29.62,NW,313,4.0,4.0,69,0.00,OVC,,0.00,WeatherDisplay:10.37,2013-03-01 18:51:00,
2013-03-01 13:56:00,34.4,25.3,29.62,NW,315,4.6,4.6,69,0.00,OVC,,0.00,WeatherDisplay:10.37,2013-03-01 18:56:00,
2013-03-01 14:01:00,34.5,24.3,29.62,NW,314,4.0,4.0,66,0.00,OVC,,0.00,WeatherDisplay:10.37,2013-03-01 19:01:00,
2013-03-01 14:06:00,34.3,24.1,29.62,NW,308,5.8,5.8,66,0.00,OVC,,0.00,WeatherDisplay:10.37,2013-03-01 19:06:00,
2013-03-01 14:11:00,34.4,24.2,29.62,WNW,299,3.5,3.5,66,0.00,OVC,,0.00,WeatherDisplay:10.37,2013-03-01 19:11:00,
2013-03-01 14:16:00,34.7,24.5,29.62,WNW,299,3.5,3.5,66,0.00,OVC,,0.00,WeatherDisplay:10.37,2013-03-01 19:16:00,
2013-03-01 14:21:00,34.6,24.4,29.62,WNW,298,2.3,2.3,66,0.00,OVC,,0.00,WeatherDisplay:10.37,2013-03-01 19:21:00,
2013-03-01 14:26:00,34.4,24.2,29.62,WNW,293,4.0,4.0,66,0.00,OVC,,0.00,WeatherDisplay:10.37,2013-03-01 19:26:00,
2013-03-01 14:31:00,34.5,24.3,29.62,WNW,302,2.3,2.3,66,0.00,OVC,,0.00,WeatherDisplay:10.37,2013-03-01 19:31:00,
2013-03-01 14:36:00,34.4,24.2,29.62,WNW,302,2.0,2.0,66,0.00,OVC,,0.00,WeatherDisplay:10.37,2013-03-01 19:36:00,
2013-03-01 14:41:00,34.3,24.1,29.62,NNW,344,3.5,3.5,66,0.00,OVC,,0.00,WeatherDisplay:10.37,2013-03-01 19:41:00,
2013-03-01 14:46:00,34.4,24.2,29.62,WNW,292,3.5,3.5,66,0.00,OVC,,0.00,WeatherDisplay:10.37,2013-03-01 19:46:00,
2013-03-01 14:51:00,34.1,23.9,29.62,NW,318,5.0,5.0,66,0.00,OVC,,0.00,WeatherDisplay:10.37,2013-03-01 19:51:00,
2013-03-01 14:56:00,34.0,23.8,29.62,WNW,288,3.5,3.5,66,0.00,OVC,,0.00,WeatherDisplay:10.37,2013-03-01 19:56:00,
2013-03-01 15:01:00,34.2,23.3,29.63,WNW,293,1.1,1.6,64,0.00,OVC,,0.00,WeatherDisplay:10.37,2013-03-01 20:01:00,
2013-03-01 15:06:00,34.2,23.3,29.63,WNW,295,3.5,3.5,64,0.00,OVC,,0.00,WeatherDisplay:10.37,2013-03-01 20:06:00,
2013-03-01 15:11:00,34.4,23.5,29.63,WNW,295,1.1,1.1,64,0.00,OVC,,0.00,WeatherDisplay:10.37,2013-03-01 20:11:00,
2013-03-01 15:16:00,34.2,23.3,29.63,NNW,329,3.0,3.0,64,0.00,OVC,,0.00,WeatherDisplay:10.37,2013-03-01 20:16:00,
2013-03-01 15:21:00,34.0,23.1,29.63,NW,313,3.5,3.5,64,0.00,OVC,,0.00,WeatherDisplay:10.37,2013-03-01 20:21:00,
2013-03-01 15:26:00,34.0,23.1,29.63,NNW,334,1.1,1.1,64,0.00,OVC,,0.00,WeatherDisplay:10.37,2013-03-01 20:26:00,
2013-03-01 15:31:00,34.1,23.2,29.63,NNW,334,1.1,1.1,64,0.00,OVC,,0.00,WeatherDisplay:10.37,2013-03-01 20:31:00,
2013-03-01 15:36:00,34.1,23.2,29.63,NNW,334,1.1,1.1,64,0.00,OVC,,0.00,WeatherDisplay:10.37,2013-03-01 20:36:00,
2013-03-01 15:41:00,34.0,23.1,29.63,NNW,334,1.1,1.1,64,0.00,OVC,,0.00,WeatherDisplay:10.37,2013-03-01 20:41:00,
2013-03-01 15:46:00,33.9,23.0,29.63,North,359,3.5,3.5,64,0.00,OVC,,0.00,WeatherDisplay:10.37,2013-03-01 20:46:00,
2013-03-01 15:51:00,33.9,23.0,29.63,North,357,3.5,3.5,64,0.00,OVC,,0.00,WeatherDisplay:10.37,2013-03-01 20:51:00,
2013-03-01 15:56:00,33.8,22.9,29.63,North,359,3.5,3.5,64,0.00,OVC,,0.00,WeatherDisplay:10.37,2013-03-01 20:56:00,
2013-03-01 16:01:00,33.7,22.8,29.63,NW,312,2.3,2.3,64,0.00,OVC,,0.00,WeatherDisplay:10.37,2013-03-01 21:01:00,
2013-03-01 16:06:00,33.7,22.8,29.63,NW,310,1.1,1.6,64,0.00,OVC,,0.00,WeatherDisplay:10.37,2013-03-01 21:06:00,
2013-03-01 16:11:00,33.5,22.6,29.63,NW,317,6.9,6.9,64,0.00,OVC,,0.00,WeatherDisplay:10.37,2013-03-01 21:11:00,
2013-03-01 16:16:00,33.4,22.5,29.63,NW,310,3.5,3.5,64,0.00,OVC,,0.00,WeatherDisplay:10.37,2013-03-01 21:16:00,
2013-03-01 16:21:00,33.5,22.6,29.63,NNW,333,2.3,2.3,64,0.00,OVC,,0.00,WeatherDisplay:10.37,2013-03-01 21:21:00,
2013-03-01 16:26:00,33.4,22.5,29.63,NNW,346,3.5,3.5,64,0.00,OVC,,0.00,WeatherDisplay:10.37,2013-03-01 21:26:00,
2013-03-01 16:32:00,33.4,22.5,29.63,NW,311,3.5,3.5,64,0.00,OVC,,0.00,WeatherDisplay:10.37,2013-03-01 21:32:00,
2013-03-01 16:37:00,33.3,22.4,29.63,NW,316,5.8,5.8,64,0.00,OVC,,0.00,WeatherDisplay:10.37,2013-03-01 21:37:00,
2013-03-01 16:42:00,33.1,22.2,29.63,NNW,332,3.5,3.5,64,0.00,OVC,,0.00,WeatherDisplay:10.37,2013-03-01 21:42:00,
2013-03-01 16:47:00,33.2,22.3,29.63,NNW,335,1.1,1.1,64,0.00,OVC,,0.00,WeatherDisplay:10.37,2013-03-01 21:47:00,
2013-03-01 16:52:00,33.0,22.1,29.63,NW,320,3.5,3.5,64,0.00,OVC,,0.00,WeatherDisplay:10.37,2013-03-01 21:52:00,
2013-03-01 16:57:00,33.1,22.2,29.63,NW,320,1.1,1.1,64,0.00,OVC,,0.00,WeatherDisplay:10.37,2013-03-01 21:57:00,
2013-03-01 17:02:00,33.0,22.9,29.64,NW,319,3.0,3.0,66,0.00,OVC,,0.00,WeatherDisplay:10.37,2013-03-01 22:02:00,
2013-03-01 17:07:00,32.8,22.7,29.64,NW,314,5.8,5.8,66,0.00,OVC,,0.00,WeatherDisplay:10.37,2013-03-01 22:07:00,
2013-03-01 17:12:00,32.8,22.7,29.64,NW,314,2.3,2.3,66,0.00,OVC,,0.00,WeatherDisplay:10.37,2013-03-01 22:12:00,
2013-03-01 17:17:00,32.6,22.5,29.64,NW,314,1.1,1.1,66,0.00,OVC,,0.00,WeatherDisplay:10.37,2013-03-01 22:17:00,
2013-03-01 17:22:00,32.6,22.5,29.64,NW,314,3.5,3.5,66,0.00,OVC,,0.00,WeatherDisplay:10.37,2013-03-01 22:22:00,
2013-03-01 17:27:00,32.5,22.4,29.64,NW,314,1.1,1.1,66,0.00,OVC,,0.00,WeatherDisplay:10.37,2013-03-01 22:27:00,
2013-03-01 17:32:00,32.5,22.4,29.64,NW,314,2.3,2.3,66,0.00,OVC,,0.00,WeatherDisplay:10.37,2013-03-01 22:32:00,
2013-03-01 17:37:00,32.5,22.4,29.64,NW,314,2.3,2.3,66,0.00,OVC,,0.00,WeatherDisplay:10.37,2013-03-01 22:37:00,
2013-03-01 17:42:00,32.5,22.4,29.64,NW,314,3.5,3.5,66,0.00,OVC,,0.00,WeatherDisplay:10.37,2013-03-01 22:42:00,
2013-03-01 17:47:00,32.3,22.2,29.64,NW,314,1.1,1.1,66,0.00,OVC,,0.00,WeatherDisplay:10.37,2013-03-01 22:47:00,
2013-03-01 17:52:00,32.4,22.3,29.64,NW,314,1.1,1.1,66,0.00,OVC,,0.00,WeatherDisplay:10.37,2013-03-01 22:52:00,
2013-03-01 17:57:00,32.3,22.2,29.64,NW,314,2.3,2.3,66,0.00,OVC,,0.00,WeatherDisplay:10.37,2013-03-01 22:57:00,
2013-03-01 18:02:00,32.4,21.2,29.66,NW,314,1.1,1.1,63,0.00,OVC,,0.00,WeatherDisplay:10.37,2013-03-01 23:02:00,
2013-03-01 18:07:00,32.2,21.0,29.66,NW,314,1.1,1.1,63,0.00,OVC,,0.00,WeatherDisplay:10.37,2013-03-01 23:07:00,
2013-03-01 18:12:00,32.2,21.0,29.66,NW,314,1.0,0.0,63,0.00,OVC,,0.00,WeatherDisplay:10.37,2013-03-01 23:12:00,
2013-03-01 18:17:00,32.3,21.1,29.66,NW,314,2.3,2.3,63,0.00,OVC,,0.00,WeatherDisplay:10.37,2013-03-01 23:17:00,
2013-03-01 18:22:00,32.0,20.8,29.66,NW,314,3.0,3.0,63,0.00,OVC,,0.00,WeatherDisplay:10.37,2013-03-01 23:22:00,
2013-03-01 18:27:00,32.2,21.0,29.66,NW,314,2.3,2.3,63,0.00,OVC,,0.00,WeatherDisplay:10.37,2013-03-01 23:27:00,
2013-03-01 18:32:00,32.1,20.9,29.66,NW,314,1.1,0.0,63,0.00,OVC,,0.00,WeatherDisplay:10.37,2013-03-01 23:32:00,
2013-03-01 18:37:00,32.0,20.8,29.66,NW,314,1.1,1.1,63,0.00,OVC,,0.00,WeatherDisplay:10.37,2013-03-01 23:37:00,
2013-03-01 18:42:00,32.0,20.8,29.66,NW,314,1.1,1.1,63,0.00,OVC,,0.00,WeatherDisplay:10.37,2013-03-01 23:42:00,
2013-03-01 18:47:00,32.0,20.8,29.66,NW,314,1.1,1.1,63,0.00,OVC,,0.00,WeatherDisplay:10.37,2013-03-01 23:47:00,
2013-03-01 18:52:00,31.9,20.7,29.66,NW,314,1.1,1.1,63,0.00,OVC,,0.00,WeatherDisplay:10.37,2013-03-01 23:52:00,
2013-03-01 18:57:00,31.9,20.7,29.66,NW,314,0.0,0.0,63,0.00,OVC,,0.00,WeatherDisplay:10.37,2013-03-01 23:57:00,
2013-03-01 19:02:00,31.7,22.7,29.67,NW,314,0.0,0.0,69,0.00,OVC,,0.00,WeatherDisplay:10.37,2013-03-02 00:02:00,
2013-03-01 19:07:00,31.8,22.8,29.67,NW,314,1.1,1.1,69,0.00,OVC,,0.00,WeatherDisplay:10.37,2013-03-02 00:07:00,
2013-03-01 19:12:00,31.8,22.8,29.67,NW,314,1.1,1.1,69,0.00,OVC,,0.00,WeatherDisplay:10.37,2013-03-02 00:12:00,
2013-03-01 19:17:00,31.7,22.7,29.67,NW,314,0.0,0.0,69,0.00,OVC,,0.00,WeatherDisplay:10.37,2013-03-02 00:17:00,
2013-03-01 19:22:00,31.6,22.6,29.67,NW,314,0.0,0.0,69,0.00,OVC,,0.00,WeatherDisplay:10.37,2013-03-02 00:22:00,
2013-03-01 19:27:00,31.6,22.6,29.67,NW,314,1.1,0.0,69,0.00,OVC,,0.00,WeatherDisplay:10.37,2013-03-02 00:27:00,
2013-03-01 19:32:00,31.6,22.6,29.67,NNW,334,1.0,1.0,69,0.00,OVC,,0.00,WeatherDisplay:10.37,2013-03-02 00:32:00,
2013-03-01 19:37:00,31.5,22.5,29.67,NNW,336,0.0,0.0,69,0.00,OVC,,0.00,WeatherDisplay:10.37,2013-03-02 00:37:00,
2013-03-01 19:42:00,31.6,22.6,29.67,NNW,336,0.0,0.0,69,0.00,OVC,,0.00,WeatherDisplay:10.37,2013-03-02 00:42:00,
2013-03-01 19:47:00,31.5,22.5,29.67,NNW,336,1.1,0.0,69,0.00,OVC,,0.00,WeatherDisplay:10.37,2013-03-02 00:47:00,
2013-03-01 19:52:00,31.4,22.4,29.67,NNW,336,0.0,0.0,69,0.00,OVC,,0.00,WeatherDisplay:10.37,2013-03-02 00:52:00,
2013-03-01 19:57:00,31.3,22.3,29.67,NNW,336,0.0,0.0,69,0.00,OVC,,0.00,WeatherDisplay:10.37,2013-03-02 00:57:00,
2013-03-01 20:02:00,31.2,23.2,29.67,NNW,336,1.1,0.0,72,0.00,OVC,,0.00,WeatherDisplay:10.37,2013-03-02 01:02:00,
2013-03-01 20:07:00,31.2,23.2,29.67,NNW,336,1.1,1.1,72,0.00,OVC,,0.00,WeatherDisplay:10.37,2013-03-02 01:07:00,
2013-03-01 20:12:00,31.0,23.0,29.67,NNW,336,0.0,0.0,72,0.00,OVC,,0.00,WeatherDisplay:10.37,2013-03-02 01:12:00,
2013-03-01 20:17:00,31.0,23.0,29.67,NNW,336,1.1,0.0,72,0.00,OVC,,0.00,WeatherDisplay:10.37,2013-03-02 01:17:00,
2013-03-01 20:22:00,31.0,23.0,29.67,NNW,336,1.1,1.1,72,0.00,OVC,,0.00,WeatherDisplay:10.37,2013-03-02 01:22:00,
2013-03-01 20:27:00,30.9,22.9,29.67,NW,325,0.0,0.0,72,0.00,OVC,,0.00,WeatherDisplay:10.37,2013-03-02 01:27:00,
2013-03-01 20:32:00,30.9,22.9,29.67,NW,324,1.1,1.1,72,0.00,OVC,,0.00,WeatherDisplay:10.37,2013-03-02 01:32:00,
2013-03-01 20:37:00,30.9,22.9,29.67,NW,324,1.1,0.0,72,0.00,OVC,,0.00,WeatherDisplay:10.37,2013-03-02 01:37:00,
2013-03-01 20:42:00,30.9,22.9,29.67,NW,324,0.0,0.0,72,0.00,OVC,,0.00,WeatherDisplay:10.37,2013-03-02 01:42:00,
2013-03-01 20:47:00,30.9,22.9,29.67,NW,324,1.1,0.0,72,0.00,OVC,,0.00,WeatherDisplay:10.37,2013-03-02 01:47:00,
2013-03-01 20:52:00,30.8,22.8,29.67,NW,324,0.0,0.0,72,0.00,OVC,,0.00,WeatherDisplay:10.37,2013-03-02 01:52:00,
2013-03-01 20:57:00,30.8,22.8,29.67,NW,324,0.0,0.0,72,0.00,OVC,,0.00,WeatherDisplay:10.37,2013-03-02 01:57:00,
2013-03-01 21:02:00,30.6,22.6,29.68,NNW,327,0.0,0.0,72,0.00,OVC,,0.00,WeatherDisplay:10.37,2013-03-02 02:02:00,
2013-03-01 21:07:00,30.6,22.6,29.68,NW,326,1.1,0.0,72,0.00,OVC,,0.00,WeatherDisplay:10.37,2013-03-02 02:07:00,
2013-03-01 21:12:00,30.6,22.6,29.68,NW,326,0.0,0.0,72,0.00,OVC,,0.00,WeatherDisplay:10.37,2013-03-02 02:12:00,
2013-03-01 21:17:00,30.7,22.7,29.68,NW,326,0.0,0.0,72,0.00,OVC,,0.00,WeatherDisplay:10.37,2013-03-02 02:17:00,
2013-03-01 21:22:00,30.6,22.6,29.68,East,85,0.0,0.0,72,0.00,OVC,,0.00,WeatherDisplay:10.37,2013-03-02 02:22:00,
2013-03-01 21:27:00,30.4,22.4,29.68,ENE,72,0.0,0.0,72,0.00,OVC,,0.00,WeatherDisplay:10.37,2013-03-02 02:27:00,
2013-03-01 21:32:00,30.2,22.3,29.68,ENE,72,1.1,0.0,72,0.00,OVC,,0.00,WeatherDisplay:10.37,2013-03-02 02:32:00,
2013-03-01 21:37:00,30.1,22.2,29.68,ENE,72,0.0,0.0,72,0.00,OVC,,0.00,WeatherDisplay:10.37,2013-03-02 02:37:00,
2013-03-01 21:42:00,30.0,22.1,29.68,ENE,72,0.0,0.0,72,0.00,OVC,,0.00,WeatherDisplay:10.37,2013-03-02 02:42:00,
2013-03-01 21:47:00,30.0,22.1,29.68,ENE,72,0.0,0.0,72,0.00,OVC,,0.00,WeatherDisplay:10.37,2013-03-02 02:47:00,
2013-03-01 21:52:00,30.2,22.3,29.68,ENE,72,0.0,0.0,72,0.00,OVC,,0.00,WeatherDisplay:10.37,2013-03-02 02:52:00,
2013-03-01 21:57:00,29.9,22.0,29.68,ENE,72,0.0,0.0,72,0.00,OVC,,0.00,WeatherDisplay:10.37,2013-03-02 02:57:00,
2013-03-01 22:02:00,30.2,23.2,29.67,ENE,72,0.0,0.0,75,0.00,OVC,,0.00,WeatherDisplay:10.37,2013-03-02 03:02:00,
2013-03-01 22:07:00,30.0,23.0,29.67,ENE,72,0.0,0.0,75,0.00,OVC,,0.00,WeatherDisplay:10.37,2013-03-02 03:07:00,
2013-03-01 22:12:00,29.9,22.9,29.67,ENE,72,0.0,0.0,75,0.00,OVC,,0.00,WeatherDisplay:10.37,2013-03-02 03:12:00,
2013-03-01 22:17:00,30.1,23.1,29.67,ENE,72,0.0,0.0,75,0.00,OVC,,0.00,WeatherDisplay:10.37,2013-03-02 03:17:00,
2013-03-01 22:22:00,30.0,23.0,29.67,ENE,72,0.0,0.0,75,0.00,OVC,,0.00,WeatherDisplay:10.37,2013-03-02 03:22:00,
2013-03-01 22:27:00,30.0,23.0,29.67,ENE,72,0.0,0.0,75,0.00,OVC,,0.00,WeatherDisplay:10.37,2013-03-02 03:27:00,
2013-03-01 22:32:00,30.0,23.0,29.67,ENE,73,0.0,0.0,75,0.00,OVC,,0.00,WeatherDisplay:10.37,2013-03-02 03:32:00,
2013-03-01 22:37:00,30.0,23.0,29.67,ENE,72,0.0,0.0,75,0.00,OVC,,0.00,WeatherDisplay:10.37,2013-03-02 03:37:00,
2013-03-01 22:42:00,30.1,23.1,29.67,ENE,73,1.1,0.0,75,0.00,OVC,,0.00,WeatherDisplay:10.37,2013-03-02 03:42:00,
2013-03-01 22:47:00,29.9,22.9,29.67,ENE,72,0.0,0.0,75,0.00,OVC,,0.00,WeatherDisplay:10.37,2013-03-02 03:47:00,
2013-03-01 22:52:00,29.9,22.9,29.67,ENE,73,0.0,0.0,75,0.00,OVC,,0.00,WeatherDisplay:10.37,2013-03-02 03:52:00,
2013-03-01 22:57:00,29.9,22.9,29.67,ENE,73,0.0,0.0,75,0.00,OVC,,0.00,WeatherDisplay:10.37,2013-03-02 03:57:00,
2013-03-01 23:02:00,29.8,22.8,29.67,ENE,73,0.0,0.0,75,0.00,OVC,,0.00,WeatherDisplay:10.37,2013-03-02 04:02:00,
2013-03-01 23:07:00,29.5,22.6,29.67,ENE,72,0.0,0.0,75,0.00,OVC,,0.00,WeatherDisplay:10.37,2013-03-02 04:07:00,
2013-03-01 23:12:00,29.7,22.7,29.67,ENE,73,0.0,0.0,75,0.00,OVC,,0.00,WeatherDisplay:10.37,2013-03-02 04:12:00,
2013-03-01 23:17:00,29.9,22.9,29.67,ENE,72,0.0,0.0,75,0.00,OVC,,0.00,WeatherDisplay:10.37,2013-03-02 04:17:00,
2013-03-01 23:22:00,29.6,22.6,29.67,ENE,73,0.0,0.0,75,0.00,OVC,,0.00,WeatherDisplay:10.37,2013-03-02 04:22:00,
2013-03-01 23:27:00,29.8,22.8,29.67,ENE,73,0.0,0.0,75,0.00,OVC,,0.00,WeatherDisplay:10.37,2013-03-02 04:27:00,
2013-03-01 23:32:00,29.5,22.6,29.67,ENE,72,0.0,0.0,75,0.00,OVC,,0.00,WeatherDisplay:10.37,2013-03-02 04:32:00,
2013-03-01 23:37:00,29.6,22.6,29.67,ENE,73,0.0,0.0,75,0.00,OVC,,0.00,WeatherDisplay:10.37,2013-03-02 04:37:00,
2013-03-01 23:42:00,29.6,22.6,29.67,ENE,73,0.0,0.0,75,0.00,OVC,,0.00,WeatherDisplay:10.37,2013-03-02 04:42:00,
2013-03-01 23:47:00,29.6,22.6,29.67,ENE,72,0.0,0.0,75,0.00,OVC,,0.00,WeatherDisplay:10.37,2013-03-02 04:47:00,
2013-03-01 23:52:00,29.3,22.4,29.67,ENE,72,0.0,0.0,75,0.00,OVC,,0.00,WeatherDisplay:10.37,2013-03-02 04:52:00,
2013-03-01 23:57:00,29.4,22.5,29.67,ENE,73,0.0,0.0,75,0.00,OVC,,0.00,WeatherDisplay:10.37,2013-03-02 04:57:00,